Terminal Aerodrome Forecast
Issued by NWS Knoxville/Tri Cities, TN

Home | Current Version | Previous Version | Text Only | Print | Product List | Glossary On
Versions: 1 2 3 4 5 6 7 8 9 10 11 12 13 14 15 16 17 18 19 20 21 22 23 24 25
275
FTUS44 KMRX 071120
TAFTRI
TAF
KTRI 071120Z 0712/0812 22005KT P6SM SKC
     FM080100 26004KT P6SM BKN250
     FM080600 VRB02KT P6SM BKN050 OVC100=

USA.gov is the U.S. government's official web portal to all federal, state and local government web resources and services.